Theta_e
358 356 356 354 354 359 361 356 353 354 354 354 355 355 354 355 355 356 357 358 359 359 359 358 358 358 358 358 357 357 356 356 356 355 355 354 353 353 353 353 354 354 352 351 350 350 350 350 351 350 350 350 350 350 350 351 350 349 349 350 349 349 348
358 357 358 356 355 361 361 356 354 355 354 354 355 355 355 354 355 357 358 359 359 359 359 358 358 358 358 357 356 356 356 355 356 355 355 355 354 354 354 354 354 353 352 350 350 350 351 351 352 351 350 349 349 350 350 351 351 351 350 350 350 349 348
358 358 358 358 360 362 361 357 355 356 355 355 355 354 354 354 355 356 358 359 359 358 358 357 358 358 357 357 356 355 355 354 354 354 354 354 353 353 353 353 353 352 350 350 351 352 353 353 353 353 352 350 349 349 349 350 350 351 350 350 350 350 349
361 361 359 359 362 362 359 355 354 355 356 356 355 354 354 354 354 355 356 357 358 358 358 358 357 357 357 357 356 355 354 353 353 353 353 353 352 352 353 353 353 352 351 351 352 353 353 353 353 353 353 351 350 349 349 349 350 350 351 351 350 350 350
364 363 360 359 360 362 359 354 353 355 356 356 357 356 356 356 355 356 356 357 357 357 357 356 357 356 356 355 354 354 353 352 352 352 351 352 352 352 353 354 354 354 354 353 353 353 353 352 352 352 352 352 350 349 349 349 351 351 351 351 349 350 350
363 362 361 358 356 359 358 353 352 354 354 355 358 358 358 357 357 357 357 357 357 357 357 356 355 355 355 354 354 353 353 352 352 351 351 351 351 352 354 355 355 355 355 354 353 352 351 352 353 353 353 353 351 350 350 351 352 352 352 350 349 350 350
361 361 362 359 356 356 356 353 352 353 353 354 356 358 357 357 357 357 356 356 356 356 355 354 353 353 353 353 353 353 352 352 352 351 351 351 351 352 354 355 355 355 355 355 354 352 352 353 354 354 354 354 352 352 352 353 353 353 352 350 351 350 350
359 362 363 360 357 356 354 352 351 352 352 352 355 358 356 356 356 355 355 355 356 356 356 354 354 353 353 353 351 352 351 351 351 351 352 352 352 353 354 354 354 354 354 355 354 353 353 354 354 354 354 353 352 352 353 353 353 353 352 351 351 350 350
357 361 362 360 359 357 351 349 351 351 351 352 356 358 356 355 355 354 355 355 356 357 356 355 354 353 352 352 350 351 351 351 351 352 352 351 351 352 353 353 353 353 354 354 353 352 352 353 354 353 353 352 353 352 352 353 354 353 353 352 351 350 350
358 360 360 359 361 357 349 348 350 351 351 354 358 359 357 355 355 353 354 354 355 356 355 355 354 352 351 350 349 351 351 351 351 350 351 350 350 351 351 351 351 352 353 353 353 352 351 352 353 352 352 352 353 354 353 352 353 354 353 353 352 351 350
359 361 360 359 361 360 355 354 353 350 352 357 358 358 357 356 355 354 353 354 355 354 354 354 352 351 350 350 350 351 350 351 350 351 351 351 351 351 351 351 351 352 353 352 352 351 351 352 352 351 352 352 353 354 354 353 353 353 352 352 353 352 352
359 360 361 361 361 361 361 361 357 352 353 357 358 358 357 357 356 355 354 355 355 355 354 353 352 352 351 350 351 352 352 351 351 351 351 350 351 351 351 352 351 352 352 352 352 352 352 351 351 352 352 352 353 353 353 353 352 352 352 353 353 353 353
358 359 360 361 362 362 362 363 361 355 354 356 357 357 357 356 356 356 355 355 355 355 354 353 352 352 352 352 352 353 353 352 351 351 351 350 351 351 351 351 350 350 351 351 352 351 351 351 351 352 352 352 353 353 353 352 352 351 351 351 351 352 352
360 360 359 360 361 362 362 361 361 357 354 356 357 356 357 357 356 356 355 356 355 355 355 354 353 354 354 354 353 353 353 353 353 352 351 352 352 352 352 351 350 350 351 351 352 352 352 352 353 353 352 353 354 353 352 351 351 351 350 350 350 350 351
364 362 360 361 360 360 360 360 361 357 353 354 356 355 357 357 356 356 356 356 356 355 355 355 354 354 354 354 353 354 354 354 354 353 351 351 351 351 352 352 352 352 352 353 353 353 352 352 353 354 353 353 353 352 352 352 352 351 351 351 350 350 352
364 361 361 360 359 360 359 359 360 355 352 353 353 353 355 354 354 356 355 356 356 355 355 354 354 353 352 352 354 354 354 353 351 350 349 349 349 349 350 350 351 351 352 352 353 353 353 352 353 355 355 355 355 354 353 352 351 351 351 351 350 351 352
362 361 360 359 359 360 359 359 359 354 350 350 351 350 350 349 350 351 351 352 352 352 352 351 351 350 349 351 352 352 351 350 348 348 348 347 347 347 347 347 349 350 349 350 351 352 353 353 353 354 354 355 354 354 354 354 352 352 352 352 351 351 352
361 359 358 358 358 359 359 359 360 355 350 348 349 349 348 347 348 347 346 347 348 348 348 348 348 348 348 349 349 348 348 347 346 346 346 345 345 344 344 344 344 346 346 347 348 349 350 351 351 352 353 353 353 353 354 353 354 355 354 353 352 351 351
359 357 357 357 356 357 358 356 355 351 349 348 349 348 347 346 346 345 345 346 346 346 346 346 348 348 348 349 347 347 346 345 345 345 343 343 342 341 341 341 342 343 343 344 345 345 346 348 348 349 350 352 353 353 353 353 354 354 354 354 354 352 352
357 356 356 356 355 356 355 352 351 349 348 349 348 348 348 346 345 345 344 345 345 345 345 346 347 348 348 347 347 346 345 344 344 343 342 341 341 340 341 342 342 343 342 343 343 344 344 345 346 347 348 349 350 352 353 354 354 354 354 354 355 355 353
357 356 356 355 355 355 353 350 349 349 349 349 348 347 347 345 345 344 344 344 345 344 344 346 347 346 345 345 344 344 343 342 342 341 341 341 340 341 341 341 342 342 342 342 342 343 343 343 344 345 345 346 348 349 351 353 353 354 353 353 353 354 354
356 356 356 355 354 354 352 350 350 349 349 349 348 347 346 345 345 344 343 344 344 344 345 345 344 343 343 343 342 342 342 341 340 340 340 340 340 340 340 340 340 341 341 341 341 342 342 342 343 344 345 346 347 348 349 351 352 352 352 352 353 354 354
356 355 355 354 353 354 352 350 351 350 349 349 348 347 347 346 345 344 344 344 343 343 344 343 342 342 342 341 341 341 341 340 340 339 339 339 339 339 339 339 339 339 340 340 340 341 341 342 342 344 345 347 347 347 349 350 350 350 351 352 352 353 354
354 353 353 352 354 354 353 352 351 350 349 350 349 348 348 346 345 344 343 343 343 343 343 342 342 342 341 341 340 340 340 339 338 338 338 338 338 338 338 338 338 338 338 338 339 340 340 341 342 343 344 345 345 345 345 347 348 348 349 349 350 350 351
354 350 350 352 355 355 353 352 352 351 350 350 349 349 347 345 345 344 343 342 343 343 343 342 342 341 341 340 340 339 339 338 338 337 337 338 337 337 337 337 337 338 338 338 338 338 338 339 339 340 342 342 343 343 343 344 344 344 344 345 345 347 348
354 348 347 351 355 355 354 354 352 351 350 349 348 348 346 345 345 344 343 342 342 343 342 341 341 341 340 340 339 339 338 338 337 337 336 336 336 336 336 337 337 338 338 337 337 336 336 337 337 338 339 340 340 339 339 339 340 340 341 341 342 344 346
348 347 346 349 355 356 354 353 353 352 350 349 348 347 346 346 345 343 344 344 343 342 342 341 341 340 339 339 338 338 337 337 336 336 335 335 335 335 336 336 337 337 337 336 335 335 334 335 335 336 338 337 337 336 335 336 336 337 338 338 339 341 343
346 345 344 347 353 356 354 353 352 351 350 348 347 346 346 345 344 343 343 343 342 342 342 341 340 340 339 338 337 336 336 336 335 335 334 333 333 334 335 335 335 336 336 335 334 333 333 334 334 335 336 336 335 334 333 334 334 335 336 337 338 339 340
347 346 344 345 351 354 354 353 351 350 349 348 346 346 346 345 343 343 342 341 342 342 342 341 340 340 338 337 336 336 335 335 334 334 334 333 333 333 333 333 333 334 335 334 333 332 332 332 333 335 335 334 334 333 333 333 333 335 336 336 336 337 338
345 344 344 346 350 355 355 352 351 350 348 347 347 346 345 345 343 343 342 341 341 342 341 340 339 339 338 336 336 335 334 334 334 333 333 333 332 332 332 332 331 332 333 334 332 331 331 332 333 333 334 333 332 331 331 332 332 333 334 335 335 336 336
343 343 346 346 349 355 355 352 350 349 347 346 346 346 345 344 343 342 342 341 342 341 340 339 338 337 337 336 335 333 333 333 332 332 332 332 332 331 330 330 330 330 332 333 332 331 333 333 332 332 333 332 331 330 330 331 331 331 332 333 335 335 335
343 343 346 346 348 353 355 352 350 349 347 346 345 345 345 344 343 343 342 341 342 341 340 339 337 337 336 334 333 332 333 333 332 332 332 331 330 329 328 328 329 329 330 331 332 332 333 333 332 331 331 331 331 330 330 330 331 330 331 332 333 335 336
348 343 344 347 349 352 352 350 349 348 347 345 344 345 344 343 342 342 342 342 341 340 339 338 337 335 335 333 332 332 333 333 333 332 331 328 327 327 327 327 326 327 328 330 330 331 330 331 332 331 330 331 331 330 330 331 330 330 330 330 330 332 334
346 341 344 348 348 350 349 345 344 344 344 344 344 344 344 343 343 342 341 341 341 340 339 337 336 334 333 333 333 334 334 333 333 332 329 327 326 326 326 326 324 325 326 327 327 328 328 328 331 332 330 330 330 330 330 330 330 331 331 329 329 329 330
342 341 345 346 347 348 346 343 342 341 341 342 343 344 343 343 343 342 342 341 340 339 338 337 335 333 332 333 334 333 332 331 331 330 328 326 326 325 325 324 322 323 324 324 325 326 326 328 331 332 331 331 330 328 329 329 329 330 331 329 327 327 327
343 344 344 344 345 345 344 344 343 341 340 341 342 343 343 343 342 342 341 341 340 339 338 336 335 333 333 334 333 331 329 327 327 327 326 325 325 324 322 321 320 321 322 323 323 324 325 326 328 330 331 330 328 328 329 329 329 329 329 327 326 326 326
342 343 344 344 345 345 343 343 342 340 340 341 342 342 344 343 342 342 341 341 340 339 338 337 335 334 334 332 329 328 327 326 325 325 325 324 324 322 321 320 320 321 321 322 323 323 325 326 327 328 329 329 329 329 329 328 328 328 327 327 326 326 326
340 342 344 344 345 344 343 342 341 340 341 342 342 343 343 343 343 341 341 341 340 339 338 336 334 334 333 329 326 326 325 325 324 324 323 322 321 320 320 321 321 320 321 321 322 323 325 326 327 327 328 328 329 329 328 328 327 327 327 327 327 327 328
Wind_Speed
8 8 8 8 7 7 7 10 14 17 18 19 21 22 24 26 26 26 26 27 27 26 26 27 27 26 26 26 25 25 24 24 23 22 22 22 22 21 20 20 20 20 20 21 21 21 21 20 19 19 21 22 23 22 19 18 20 20 19 17 18 19 20
8 8 7 7 7 7 7 10 14 16 17 19 21 22 23 25 26 26 26 27 27 27 26 26 26 26 26 26 25 25 24 24 23 22 21 21 21 20 20 20 21 21 21 21 21 20 20 19 18 17 18 21 22 23 22 20 19 19 19 19 19 20 20
8 7 7 7 7 7 7 8 11 13 16 18 20 21 22 24 26 27 26 27 27 26 26 25 26 26 25 25 24 24 24 23 23 22 22 22 21 21 20 20 20 21 21 20 19 19 19 18 17 16 16 19 20 21 22 23 22 21 21 21 21 21 22
7 7 7 6 6 6 6 8 9 11 13 15 18 20 20 22 25 26 26 27 26 25 25 25 25 25 24 24 24 24 23 23 22 22 21 21 21 20 19 19 19 19 20 20 19 19 19 19 19 17 16 17 19 20 20 21 22 22 22 23 23 22 22
6 6 6 6 6 6 5 7 10 12 12 13 15 16 17 18 21 23 24 25 24 24 24 25 24 24 24 24 24 24 23 23 22 20 19 19 20 19 17 16 17 18 18 17 18 19 19 18 17 16 15 15 17 18 19 20 20 21 21 23 24 22 22
5 5 6 6 7 6 5 7 10 13 14 15 14 14 14 16 18 20 21 21 22 21 21 22 22 22 23 23 23 22 21 21 20 19 17 18 20 19 18 16 17 18 17 15 15 16 16 16 16 15 14 15 16 18 19 19 19 19 20 22 24 23 22
6 6 6 6 6 6 5 7 10 13 14 15 14 13 14 16 17 17 17 18 18 18 18 18 19 20 21 21 21 20 20 20 19 18 17 18 19 19 19 18 17 17 15 14 14 14 14 16 16 16 16 16 17 18 19 19 19 20 20 22 24 24 23
7 6 6 5 6 7 5 6 9 10 11 13 14 14 16 16 16 16 16 15 15 15 16 17 17 18 18 18 18 18 18 18 18 17 17 18 19 19 18 19 18 16 14 15 15 13 13 16 17 18 18 17 18 18 19 19 19 21 22 23 24 24 24
6 6 5 5 6 6 6 8 9 9 9 11 13 15 17 17 16 17 16 15 15 15 15 15 16 16 16 16 17 17 16 17 16 15 16 17 17 17 17 17 16 15 14 16 15 13 13 15 18 19 19 17 16 17 19 20 20 20 22 23 24 25 24
6 6 5 5 5 5 6 9 10 9 10 11 13 15 16 16 15 16 16 16 16 15 14 13 13 14 15 15 16 16 15 15 14 13 14 14 13 14 14 15 15 15 14 14 14 13 13 14 17 18 19 19 19 17 19 21 21 21 20 20 22 24 24
6 6 5 5 5 5 7 8 8 9 11 12 14 16 16 15 15 15 15 15 14 14 12 11 11 12 14 14 15 15 14 13 13 12 12 12 12 13 13 12 14 15 13 12 12 12 12 12 15 16 17 20 20 19 19 20 22 21 20 20 21 23 24
6 6 6 6 6 6 6 6 6 8 11 13 16 17 17 16 16 15 14 13 12 12 11 11 11 11 12 13 14 14 12 12 12 12 11 11 11 11 10 10 12 13 12 11 11 11 10 11 15 15 15 17 19 19 18 20 21 22 20 20 20 20 21
6 6 7 7 6 6 6 6 6 8 11 14 16 18 18 17 16 16 15 13 12 11 11 12 12 11 11 12 12 12 10 9 9 9 8 6 4 4 4 6 9 10 9 9 9 8 9 11 14 14 13 15 17 16 16 18 20 21 20 19 20 19 18
8 8 8 8 8 8 8 8 7 8 12 15 16 17 17 16 16 16 15 14 12 11 11 11 11 11 10 11 11 10 9 8 6 6 6 5 5 5 4 4 6 6 5 5 6 8 10 13 14 13 13 14 14 13 14 15 16 17 17 18 19 19 18
9 9 10 10 10 10 10 9 8 9 12 14 16 16 16 15 15 15 14 14 12 12 11 10 10 10 10 11 11 10 9 7 7 8 10 9 9 9 8 6 3 2 2 2 5 8 12 14 14 13 12 11 11 11 12 13 14 15 15 16 17 17 16
10 9 10 10 10 9 10 10 9 10 13 14 16 17 16 16 17 16 15 14 13 13 12 10 10 9 9 10 10 9 9 9 10 10 9 8 7 7 7 6 5 5 4 4 5 5 7 10 12 13 11 10 10 11 12 13 14 14 13 15 17 16 14
11 10 10 10 9 9 9 9 9 10 12 15 17 19 19 18 19 19 18 16 15 14 12 11 10 9 9 10 11 11 11 10 9 8 6 5 5 4 3 4 4 4 4 4 4 4 4 5 6 8 10 11 11 12 11 11 11 11 11 12 14 14 14
13 12 11 11 10 10 10 10 10 10 13 16 19 20 20 19 19 20 19 18 17 15 13 12 11 11 12 13 13 12 11 10 8 7 6 5 4 3 3 3 4 5 5 5 4 4 4 4 4 4 6 9 10 11 12 11 10 9 9 9 11 12 13
15 14 14 13 13 13 13 11 12 15 17 19 21 22 21 20 19 19 18 17 16 15 13 12 11 11 12 13 13 12 12 10 9 8 6 4 3 3 3 3 4 5 6 7 6 6 6 6 5 4 3 4 6 8 9 9 9 9 10 9 10 11 13
16 15 15 14 14 14 12 12 15 19 21 22 23 22 22 20 19 18 17 17 16 15 14 12 12 12 12 12 13 12 11 10 9 8 6 4 4 4 4 4 4 4 5 6 7 7 7 7 7 6 4 3 3 4 6 8 9 10 11 11 11 11 12
15 16 15 14 14 13 12 14 17 20 22 24 25 24 22 21 19 18 18 18 16 15 14 13 12 12 12 12 12 11 11 10 9 7 6 5 5 5 5 5 5 5 4 4 5 5 5 5 6 6 6 6 6 6 6 7 8 9 11 12 13 13 13
15 16 16 15 15 15 16 19 23 24 25 25 26 26 24 22 21 21 19 17 16 15 14 14 13 12 11 11 11 11 10 9 8 6 5 5 5 5 5 5 5 5 4 4 4 4 4 4 4 4 5 6 6 7 7 7 7 8 9 11 12 13 14
17 16 15 15 17 20 22 24 25 27 27 27 26 26 25 23 23 22 20 18 17 16 15 14 14 13 12 12 11 10 9 8 7 6 5 5 6 5 5 4 4 4 4 4 5 4 3 3 3 2 2 3 4 5 6 7 7 7 8 9 10 11 12
14 14 15 16 19 21 23 24 25 26 27 27 26 26 26 25 25 23 21 19 17 16 15 15 14 14 14 13 12 10 9 8 7 6 6 5 5 5 4 4 4 4 4 4 5 5 4 3 2 2 2 1 1 2 3 5 5 6 7 7 8 9 10
8 11 17 22 24 24 25 26 26 25 26 26 26 27 28 27 26 24 22 20 18 16 15 15 15 14 13 12 11 9 8 7 6 6 6 5 5 4 4 4 4 4 4 4 5 4 3 3 3 3 2 2 2 2 2 2 2 4 5 7 8 7 7
6 10 15 20 25 28 28 28 28 27 26 27 28 29 30 28 26 23 21 20 19 18 16 15 15 14 13 11 10 9 8 7 6 5 5 5 4 4 4 3 3 4 4 4 4 4 3 3 3 3 3 4 4 3 4 5 6 6 7 8 8 6 5
6 11 15 18 22 25 26 27 29 28 28 29 31 32 31 29 25 22 21 21 19 17 17 16 15 13 12 11 9 8 7 7 6 5 5 5 4 4 4 4 4 4 4 4 3 2 3 3 3 3 3 3 4 6 7 8 9 10 10 10 10 9 8
6 8 11 15 19 23 24 23 25 26 26 29 32 33 32 30 26 22 21 21 20 18 18 18 16 14 12 10 9 8 7 6 6 5 5 6 6 5 5 4 4 4 5 4 2 1 3 3 2 3 3 3 4 5 5 5 6 7 8 9 10 11 11
7 8 11 13 15 19 22 21 22 24 26 30 33 33 32 30 26 24 23 21 19 19 19 19 17 15 13 11 9 8 7 7 6 6 6 6 6 6 5 4 4 4 4 4 2 3 4 3 2 3 3 3 2 2 2 4 5 6 7 9 10 11 11
5 6 11 14 15 18 20 20 21 23 26 29 31 31 31 30 26 24 23 22 21 21 22 20 18 16 13 11 10 8 7 7 6 6 6 6 6 6 5 4 4 4 5 4 3 4 5 2 2 3 4 4 4 2 1 1 1 2 4 6 8 8 8
9 6 7 12 16 18 20 19 19 20 22 25 28 30 29 29 27 24 23 23 24 24 23 20 18 16 14 11 9 7 7 7 6 6 6 6 6 6 5 4 5 5 5 5 4 4 4 2 3 4 5 5 5 5 5 5 4 4 4 3 2 2 1
11 10 9 11 14 15 17 19 19 20 19 20 24 28 28 27 27 26 25 26 27 25 23 20 18 15 13 11 9 9 9 8 7 7 7 6 5 4 3 3 4 5 6 5 5 5 4 3 4 4 5 6 6 6 5 4 5 6 7 6 4 4 5
7 9 12 12 12 10 10 10 10 14 18 20 21 24 26 26 26 26 26 27 27 25 22 20 17 14 13 13 12 11 11 10 10 10 9 7 5 4 3 2 2 3 5 6 7 5 3 3 5 6 7 7 7 6 5 2 2 3 5 7 6 5 7
6 9 13 15 17 17 15 12 7 2 7 14 21 23 24 24 24 25 26 27 27 24 22 19 16 14 14 14 14 13 12 12 13 14 12 9 6 5 4 2 1 2 3 3 4 4 3 3 5 7 8 8 7 6 6 3 1 0 3 5 6 8 11
7 9 14 17 20 22 21 20 19 12 8 11 17 22 24 24 24 25 27 27 26 24 22 19 16 15 15 15 14 14 14 15 16 16 14 11 7 5 3 2 2 2 2 2 2 3 3 3 4 7 9 8 7 6 5 3 3 4 5 7 9 13 16
6 7 13 19 23 24 24 25 28 27 21 16 16 19 22 24 25 26 27 27 26 25 22 20 18 17 16 15 16 17 18 18 18 17 14 11 8 6 5 5 4 3 3 3 2 2 3 3 3 5 7 8 6 5 4 6 8 9 9 11 13 15 17
8 8 15 23 27 28 29 29 29 27 27 27 26 25 24 25 26 27 27 27 26 25 23 22 21 19 17 18 19 20 19 19 19 17 14 11 9 9 8 8 7 5 5 5 5 4 4 3 3 4 6 6 5 6 8 10 11 12 14 15 15 15 15
11 13 17 22 27 28 29 31 31 31 34 37 35 30 28 26 26 27 28 27 25 24 23 23 23 21 19 20 21 21 20 21 20 17 15 13 12 11 11 11 10 9 8 7 7 6 6 5 5 4 4 5 8 11 12 13 13 14 15 15 14 13 12
Wind_Direction
178 187 187 190 189 182 184 186 188 190 188 186 184 183 186 191 193 193 194 196 198 199 201 205 207 208 212 214 215 216 217 218 220 224 227 230 234 236 237 239 241 243 247 249 251 252 254 255 255 249 242 240 238 233 230 231 233 236 241 247 245 242 243
180 185 185 188 186 181 183 183 184 185 183 184 185 184 186 188 190 192 193 195 197 199 202 205 207 209 212 214 215 216 218 219 221 223 226 229 234 238 241 244 247 249 251 253 254 255 257 257 258 255 246 241 239 235 232 233 234 233 237 244 247 247 246
180 181 180 181 176 174 176 174 177 179 177 179 182 183 186 189 191 191 192 194 196 199 202 205 208 210 211 211 212 215 218 220 222 223 226 230 235 240 245 249 250 251 253 254 256 256 256 257 259 260 254 244 239 236 236 237 237 234 235 240 247 249 248
174 172 164 154 145 155 164 163 168 173 175 179 181 185 190 193 195 195 195 197 198 199 202 205 208 210 212 211 211 214 218 221 224 226 228 231 235 241 247 251 251 251 253 254 256 256 256 258 259 261 259 250 242 237 236 237 237 238 237 238 244 250 250
158 150 146 134 131 149 160 160 165 166 169 175 179 186 191 194 196 196 196 198 200 203 207 208 209 211 214 215 214 215 219 224 226 227 229 230 232 235 241 250 256 255 253 255 257 258 259 259 258 259 258 250 242 237 236 238 240 242 241 239 241 246 248
149 156 158 140 140 154 156 155 161 165 170 173 174 179 184 187 189 190 193 196 198 203 207 208 210 211 214 217 217 216 219 225 228 227 228 230 230 230 232 242 255 258 257 260 263 264 263 261 256 254 252 247 242 239 239 241 243 245 244 240 239 242 244
156 171 166 142 139 147 154 158 158 162 171 173 169 172 179 182 180 181 188 193 195 201 204 206 210 213 215 217 219 219 218 222 226 226 229 231 229 229 230 235 246 254 259 264 265 265 266 265 259 252 250 249 246 244 244 244 245 245 240 237 237 239 241
157 168 168 154 144 144 152 161 159 161 168 166 165 173 180 179 177 179 185 190 196 202 203 206 209 209 212 215 217 219 218 221 224 225 228 230 229 230 231 234 241 247 253 256 255 257 264 265 260 255 255 255 249 245 245 246 246 243 238 236 238 238 238
150 167 171 155 143 143 146 152 158 165 165 160 164 175 180 178 180 185 186 187 195 201 203 206 208 207 208 209 212 215 218 222 224 225 228 230 232 232 232 235 237 235 241 247 248 253 261 262 258 256 257 257 250 246 245 245 245 243 241 240 240 237 236
156 170 164 147 143 141 140 148 156 162 162 161 165 173 179 182 184 187 188 190 197 203 207 210 211 211 211 208 207 210 215 218 218 222 227 228 230 232 232 237 236 234 239 245 246 249 254 262 264 259 255 254 251 246 244 243 241 240 243 244 241 238 237
164 166 155 155 158 148 146 154 160 160 162 167 169 170 176 182 186 191 195 197 201 205 209 215 215 209 207 206 204 203 205 206 209 213 217 220 227 229 226 229 232 235 238 238 237 236 241 261 268 256 248 248 247 243 241 240 238 237 240 242 239 237 238
165 164 161 165 165 159 156 158 159 158 163 170 171 168 169 174 180 187 193 198 206 207 204 210 210 198 194 199 199 198 200 203 207 209 211 219 227 225 223 228 234 237 238 237 236 230 229 249 256 248 242 244 243 242 243 242 239 238 238 236 233 235 239
161 161 163 163 159 156 153 150 155 157 159 165 167 166 168 172 176 180 183 190 202 204 198 199 200 191 190 196 196 200 206 203 200 200 202 207 208 208 223 235 233 229 227 231 236 232 226 234 242 245 245 243 241 243 248 245 243 243 241 237 235 236 240
153 151 153 155 152 152 150 148 152 152 154 157 158 162 168 173 177 178 178 183 193 196 193 191 191 190 195 199 201 210 216 209 193 177 161 136 128 138 153 190 213 210 203 210 219 224 225 226 232 237 238 239 242 245 245 243 242 243 242 240 240 240 243
155 151 151 155 155 154 150 149 153 153 154 155 155 159 165 171 175 177 177 182 189 192 190 187 188 192 198 205 209 214 212 197 168 147 141 135 134 136 135 139 151 131 108 154 198 216 224 224 227 228 226 232 243 245 243 244 245 245 243 241 239 238 242
163 160 161 159 158 158 154 152 156 156 156 158 158 160 162 164 169 173 176 179 184 188 189 189 190 195 203 207 204 194 180 167 153 146 147 147 145 145 142 138 135 129 128 148 172 197 216 221 228 231 229 227 233 240 243 244 245 244 242 240 238 239 245
169 169 169 164 161 163 158 154 155 156 158 160 161 162 161 159 162 164 164 165 169 173 173 174 175 174 175 174 168 164 162 159 157 159 161 164 170 178 180 179 177 171 164 157 159 170 181 200 226 240 239 233 234 239 241 239 237 236 238 241 242 243 246
173 173 172 170 169 167 165 162 161 162 163 163 162 163 162 159 159 160 160 159 159 161 161 164 164 156 151 152 154 158 162 163 165 166 164 171 191 211 224 234 229 220 214 207 198 194 190 192 210 231 237 238 241 243 239 235 233 233 237 243 243 241 242
173 176 177 176 176 174 172 171 169 168 167 166 167 168 168 166 164 165 167 165 162 163 165 167 168 162 157 157 161 162 163 166 169 167 167 173 182 197 215 231 233 227 228 227 226 227 223 220 222 225 224 233 247 251 243 237 234 233 236 241 242 242 241
175 178 180 179 180 178 175 173 171 171 171 171 172 173 173 175 175 172 172 170 167 167 168 168 168 169 167 165 165 165 164 167 167 164 165 170 174 184 192 199 206 211 216 221 225 229 230 232 234 232 225 220 234 243 242 238 234 232 236 240 243 245 244
180 180 181 183 181 180 177 173 171 172 174 174 174 175 176 179 178 174 172 172 171 170 171 171 167 165 164 162 161 163 164 163 161 160 162 169 175 178 177 179 186 191 198 209 214 217 225 232 234 235 233 233 235 238 239 237 234 236 241 243 243 244 246
184 184 186 184 180 178 179 178 175 174 175 174 173 175 178 180 178 173 170 172 174 173 172 170 164 159 157 155 155 159 163 164 166 169 175 184 185 179 176 180 187 188 192 204 209 210 218 224 231 239 237 231 233 238 236 233 233 239 244 244 243 243 245
184 186 186 181 178 179 179 180 179 175 173 172 172 176 180 180 178 175 171 170 170 171 170 169 166 164 162 162 163 166 170 175 179 182 189 199 201 199 197 198 202 204 204 212 213 208 206 212 219 225 227 226 231 237 235 231 236 244 244 244 245 246 248
184 178 175 172 173 176 177 178 177 175 171 169 172 177 180 178 177 175 172 171 171 170 170 169 168 167 165 165 168 173 178 184 188 188 192 200 207 213 218 221 227 231 231 227 220 207 198 208 219 207 214 228 211 228 238 232 237 251 261 266 261 252 252
176 165 169 171 171 172 174 174 173 172 170 168 170 174 176 176 175 173 173 175 175 173 171 170 169 169 169 169 173 181 186 187 190 195 198 204 213 223 234 244 247 246 244 240 234 224 214 221 226 216 206 197 175 184 237 229 233 258 273 285 284 268 254
174 166 171 174 172 172 171 170 169 169 170 171 170 171 172 173 172 172 174 177 177 174 172 171 171 172 175 177 182 189 192 194 199 202 202 206 219 231 238 246 248 245 249 250 247 248 248 243 240 227 209 209 222 252 275 279 281 278 274 279 283 276 259
185 174 172 173 171 169 168 168 170 171 172 172 170 168 170 170 169 170 173 175 176 177 176 175 175 175 177 179 183 188 194 199 201 200 204 217 232 238 235 236 245 250 259 263 256 258 267 264 258 241 215 233 272 288 290 285 280 276 272 269 267 262 252
156 166 172 174 170 166 166 170 171 170 170 171 169 168 170 170 168 167 171 173 176 178 178 177 176 178 180 181 184 193 201 207 207 211 223 232 236 239 237 239 251 261 264 259 254 308 312 291 256 229 219 243 280 292 289 283 279 277 277 274 269 264 251
152 163 167 170 171 168 167 169 170 169 169 169 169 169 170 170 167 167 171 175 177 177 176 176 179 182 183 184 192 205 213 217 221 224 226 226 228 235 239 236 242 255 250 237 248 321 313 289 221 196 191 187 199 223 252 263 265 268 273 276 275 270 257
129 159 164 167 172 171 170 172 172 170 169 169 168 168 170 170 167 167 171 174 175 173 172 174 177 179 179 184 192 203 213 218 221 219 216 218 223 230 233 228 228 238 232 214 227 287 292 270 200 192 183 171 165 158 171 222 248 270 281 281 276 273 261
87 92 143 169 174 173 173 175 171 167 167 169 168 167 170 171 169 168 171 172 172 171 171 172 174 174 177 184 188 194 204 207 206 205 207 213 223 230 236 232 223 221 214 199 209 246 259 248 218 198 185 182 172 143 119 99 76 54 35 14 327 286 228
87 85 116 162 182 182 176 172 167 164 164 168 169 168 170 173 173 170 171 171 171 172 173 172 172 174 179 183 180 184 194 195 195 198 197 198 208 215 223 232 224 209 201 205 223 236 239 241 230 200 184 191 187 164 139 100 61 52 48 44 54 102 122
129 118 116 139 165 164 146 140 152 164 165 167 171 171 171 173 175 174 172 171 171 173 174 172 172 175 178 179 179 185 193 196 196 192 183 179 180 172 168 208 239 214 202 217 232 234 235 245 231 208 195 194 189 181 179 172 31 46 60 58 65 105 134
198 162 133 137 152 151 134 115 104 142 187 176 172 172 172 173 176 176 173 172 173 174 172 172 174 174 174 179 190 197 198 196 194 189 183 181 181 174 169 180 209 188 185 204 216 209 212 234 225 214 211 206 195 193 199 215 267 107 104 88 87 110 125
238 188 153 145 151 152 147 141 143 159 202 202 181 173 172 174 176 177 175 174 174 175 174 173 174 174 177 186 195 195 190 187 186 186 186 186 183 181 181 175 154 144 145 154 175 178 187 207 210 213 216 211 203 203 199 176 136 128 128 121 117 119 122
239 190 155 146 146 150 154 158 161 164 172 180 180 178 176 175 175 177 176 176 177 178 177 176 175 176 181 186 187 184 181 179 178 180 183 184 182 178 163 143 123 105 101 97 106 146 171 186 193 206 213 214 209 200 167 135 122 121 124 125 125 126 126
219 195 166 156 155 159 163 166 165 162 162 169 177 182 181 177 176 176 177 179 181 183 182 181 179 178 179 180 181 181 179 175 172 173 175 175 174 168 153 137 122 103 92 86 84 97 121 137 158 189 206 205 181 147 132 125 121 123 128 130 131 132 132
209 204 192 177 170 168 165 163 165 166 170 175 178 177 176 177 178 179 179 181 185 188 188 185 182 179 178 178 177 174 170 167 165 165 165 165 165 162 151 138 126 111 97 90 90 100 115 125 137 155 158 144 135 130 126 126 127 130 134 137 138 141 141